User: anonymous   Login
Location: Unspecified
(0.0000°N, 0.0000°E)
Time: 22:00:51
(UTC+00:00)
Language:

FEDSAT - Orbit

View from above orbital plane
View from above orbital plane
View from above satellite
View from above satellite

Ground track
Ground track

The orbit data is extracted from the following two-line orbital elements,

1 27598U 02056B   17082.84205003 +.00000011 +00000-0 +21294-4 0  9998
2 27598 098.4226 041.4217 0009958 131.1976 229.0066 14.28617259744142
Epoch (UTC): 23 March 2017 20:12:33
Eccentricity: 0.0009958
inclination: 98.4226°
perigee height: 789 km
apogee height: 803 km
right ascension of ascending node: 41.4217°
argument of perigee: 131.1976°
revolutions per day: 14.28617259
mean anomaly at epoch: 229.0066°
orbit number at epoch: 74414

The dashed part of the orbit path shows where the satellite is in the earth's shadow,  

DLR